This is the latest recevied weather packets stored in our database for station/object KM5R. If no packets are shown the sender has not sent any weather packets the latest 10 day(s).
| Time | Temp. | Humidity | Pressure | Rain* | Wind** | Luminosity | Snow |
|---|---|---|---|---|---|---|---|
| 1777834737 | 25° C | 30% | 1022.1 hPa | 0 mm | - | 787 W/m² | - |
| 1777834434 | 25° C | 31% | 1022.4 hPa | 0 mm | - | 753 W/m² | - |
| 1777834134 | 25° C | 30% | 1022.3 hPa | 0 mm | - | 787 W/m² | - |
| 1777833830 | 25° C | 30% | 1022.4 hPa | 0 mm | - | 783 W/m² | - |
| 1777833526 | 24.44° C | 31% | 1022.4 hPa | 0 mm | - | 783 W/m² | - |
| 1777833223 | 25° C | 30% | 1022.5 hPa | 0 mm | - | 787 W/m² | - |
| 1777832921 | 25° C | 30% | 1022.7 hPa | 0 mm | - | 785 W/m² | - |
| 1777832620 | 24.44° C | 30% | 1022.5 hPa | 0 mm | - | 781 W/m² | - |
| 1777832316 | 25° C | 31% | 1022.8 hPa | 0 mm | - | 773 W/m² | - |
| 1777832013 | 25° C | 32% | 1022.9 hPa | 0 mm | - | 771 W/m² | - |
| 1777831710 | 24.44° C | 33% | 1023 hPa | 0 mm | - | 776 W/m² | - |
| 1777831408 | 25° C | 32% | 1023 hPa | 0 mm | - | 773 W/m² | - |
| 1777831104 | 25° C | 32% | 1023.1 hPa | 0 mm | - | 771 W/m² | - |
| 1777830802 | 24.44° C | 35% | 1023.1 hPa | 0 mm | - | 768 W/m² | - |
| 1777830497 | 25° C | 34% | 1023.1 hPa | 0 mm | - | 764 W/m² | - |
| 1777830197 | 25° C | 31% | 1023.3 hPa | 0 mm | - | 759 W/m² | - |
| 1777829897 | 25° C | 33% | 1023.4 hPa | 0 mm | - | 755 W/m² | - |
| 1777829593 | 24.44° C | 38% | 1023.5 hPa | 0 mm | - | 746 W/m² | - |
| 1777829290 | 24.44° C | 38% | 1023.4 hPa | 0 mm | - | 738 W/m² | - |
| 1777828988 | 23.89° C | 38% | 1023.7 hPa | 0 mm | - | 735 W/m² | - |
| 1777828683 | 23.89° C | 37% | 1023.7 hPa | 0 mm | - | 732 W/m² | - |
| 1777828381 | 24.44° C | 35% | 1023.8 hPa | 0 mm | - | 728 W/m² | - |
| 1777828078 | 23.89° C | 35% | 1024.1 hPa | 0 mm | - | 716 W/m² | - |
| 1777827774 | 23.89° C | 40% | 1024.1 hPa | 0 mm | - | 713 W/m² | - |
| 1777827471 | 23.89° C | 40% | 1024.1 hPa | 0 mm | - | 704 W/m² | - |
* Rain latest hour (hover to see other rain measurements)
** Current wind speed in m/s (hover to see current wind gust speed)